Weather History for Vero Beach, FL

Change the Weather History Date:

Thursday, July 19, 2012

  Actual Average Record
Temperature  
Mean Temperature 83 °F 82 °F  
Max Temperature 91 °F 90 °F 98 °F (1983)
Min Temperature 75 °F 74 °F 68 °F (1950)
Degree Days  
Heating Degree Days 0 0  
Month to date heating degree days 0 0  
Since 1 June heating degree days 0 0  
Since 1 July heating degree days 0 0  
Cooling Degree Days 18 17  
Month to date cooling degree days 306 314  
Year to date cooling degree days 1793 1576  
Since 1 June cooling degree days 754 770  
Growing Degree Days 32 (Base 50)    
Moisture  
Dew Point 75 °F    
Average Humidity 75    
Maximum Humidity 94    
Minimum Humidity 56    
Precipitation  
Precipitation 0.00 in 0.18 in 1.15 in (1997)
Month to date precipitation 1.43 3.48  
Year to date precipitation 20.19 25.52  
Sea Level Pressure  
Sea Level Pressure 30.15 in    
Wind  
Wind Speed 9 mph (SSE)    
Max Wind Speed 18 mph    
Max Gust Speed 23 mph    
Visibility 10 miles    
Events      
T = Trace of Precipitation, MM = Missing Value Source: NWS Daily Summary

Daily Weather History Graph

Daily Weather History Graph

Search for Another Location

Airport:

Trip Planner

Search our weather history database for the weather conditions in past years. The results will help you decide how hot, cold, wet, or windy it might be!

Date:

Astronomy

Jul. 19, 2012 Rise Set
Actual Time 6:38 AM EDT 8:17 PM EDT
Civil Twilight 6:12 AM EDT 8:43 PM EDT
Nautical Twilight 5:41 AM EDT 9:14 PM EDT
Astronomical Twilight 5:08 AM EDT 9:46 PM EDT
Moon 7:03 AM EDT 8:33 PM EDT
Length of Visible Light 14h 31m
Length of Day
13h 39m
New Moon, 0% of the Moon is Illuminated
Jul 19
New Moon
Jul 26
First Quarter
Aug 1
Full
Aug 9
Last Quarter
Aug 17
New

Hourly Weather History & Observations

Time (EDT) Temp. Heat Index Dew Point Humidity Pressure Visibility Wind Dir Wind Speed Gust Speed Precip Events Conditions
2:53 AM 75.9 °F - 73.0 °F 91% 30.13 in 10.0 mi SSE 3.5 mph - N/A   Clear
3:53 AM 77.0 °F - 73.9 °F 90% 30.13 in 10.0 mi SSE 5.8 mph - N/A   Clear
4:53 AM 78.1 °F - 75.0 °F 90% 30.13 in 10.0 mi SSW 4.6 mph - N/A   Clear
5:53 AM 77.0 °F - 75.0 °F 94% 30.15 in 9.0 mi SSW 4.6 mph - N/A   Clear
6:53 AM 77.0 °F - 75.0 °F 94% 30.17 in 6.0 mi South 3.5 mph - N/A   Clear
7:53 AM 78.8 °F - 75.2 °F 89% 30.17 in 8.0 mi South 5.8 mph - N/A   Clear
8:53 AM 82.9 °F 91.8 °F 77.0 °F 82% 30.18 in 10.0 mi SSW 4.6 mph - N/A   Partly Cloudy
9:53 AM 84.9 °F 93.3 °F 75.0 °F 72% 30.19 in 10.0 mi South 6.9 mph - N/A   Partly Cloudy
10:53 AM 88.0 °F 95.6 °F 73.0 °F 61% 30.19 in 10.0 mi South 8.1 mph - N/A   Scattered Clouds
11:53 AM 86.0 °F 96.0 °F 75.9 °F 72% 30.19 in 10.0 mi ESE 8.1 mph - N/A   Mostly Cloudy
12:11 PM 89.6 °F 104.7 °F 78.8 °F 70% 30.19 in 10.0 mi SE 11.5 mph - N/A   Overcast
12:20 PM 87.8 °F 99.7 °F 77.0 °F 70% 30.19 in 10.0 mi ESE 13.8 mph - N/A   Mostly Cloudy
12:53 PM 89.1 °F 100.2 °F 75.9 °F 65% 30.18 in 10.0 mi ESE 13.8 mph - N/A   Partly Cloudy
1:53 PM 90.0 °F 99.0 °F 73.9 °F 59% 30.17 in 10.0 mi ESE 13.8 mph - N/A   Partly Cloudy
2:53 PM 90.0 °F 99.0 °F 73.9 °F 59% 30.15 in 10.0 mi SE 15.0 mph - N/A   Clear
3:53 PM 90.0 °F 96.9 °F 72.0 °F 55% 30.14 in 10.0 mi SE 16.1 mph - N/A   Clear
4:53 PM 88.0 °F 97.5 °F 75.0 °F 65% 30.13 in 10.0 mi SE 16.1 mph - N/A   Clear
5:53 PM 87.1 °F 94.5 °F 73.0 °F 63% 30.12 in 10.0 mi SE 15.0 mph - N/A   Clear
6:53 PM 86.0 °F 93.8 °F 73.9 °F 67% 30.12 in 10.0 mi SE 13.8 mph - N/A   Clear
7:53 PM 82.9 °F 90.2 °F 75.0 °F 77% 30.12 in 10.0 mi SE 9.2 mph - N/A   Clear
8:53 PM 82.0 °F 88.6 °F 75.0 °F 79% 30.13 in 10.0 mi SE 10.4 mph - N/A   Clear
9:53 PM 81.0 °F 86.2 °F 73.9 °F 79% 30.12 in 10.0 mi SE 10.4 mph - N/A   Clear
10:53 PM 81.0 °F 86.2 °F 73.9 °F 79% 30.13 in 10.0 mi SSE 10.4 mph - N/A   Clear
11:53 PM 80.1 °F 84.5 °F 73.9 °F 81% 30.14 in 10.0 mi SSE 9.2 mph - N/A   Clear